• In Netherlands
  • List of Countries
  • For 7 days
  • Water Temperature
  • Satellite Maps
  • Weather Map
  • Weather Widgets
  • user-avatar
    Login

    Hourly Weather Sevan

    Today, 28 July, Friday

    Time Temperature Precipitation Wind Pressure Humidity
    00:00 +21°C° 0.1 mm 2 mps 641 mmHg 71%
    01:00 +21°C° 0 mm 2 mps 641 mmHg 71%
    02:00 +20°C° 0 mm 2 mps 641 mmHg 71%
    03:00 +20°C° 0 mm 2 mps 641 mmHg 69%
    04:00 +21°C° 0 mm 2 mps 642 mmHg 67%
    05:00 +21°C° 0 mm 2 mps 642 mmHg 66%
    06:00 +21°C° 0 mm 2 mps 642 mmHg 64%
    07:00 +25°C° 0 mm 2 mps 643 mmHg 55%
    08:00 +27°C° 0 mm 2 mps 643 mmHg 47%
    09:00 +29°C° 0 mm 2 mps 644 mmHg 38%
    10:00 +31°C° 0 mm 2 mps 644 mmHg 35%
    11:00 +32°C° 0 mm 2 mps 644 mmHg 32%
    12:00 +34°C° 0 mm 2 mps 644 mmHg 29%
    13:00 +35°C° 0 mm 2 mps 644 mmHg 27%
    14:00 +35°C° 0 mm 3 mps 643 mmHg 25%
    15:00 +35°C° 0 mm 3 mps 643 mmHg 26%
    16:00 +34°C° 0 mm 2 mps 643 mmHg 30%
    17:00 +32°C° 0 mm 2 mps 643 mmHg 33%
    18:00 +31°C° 0 mm 2 mps 643 mmHg 37%
    19:00 +29°C° 0 mm 2 mps 643 mmHg 44%
    20:00 +26°C° 0 mm 2 mps 642 mmHg 50%
    21:00 +24°C° 0 mm 2 mps 642 mmHg 57%
    22:00 +23°C° 0 mm 2 mps 642 mmHg 59%
    23:00 +23°C° 0 mm 2 mps 642 mmHg 62%

    Tomorrow, 29 July, Saturday

    Time Temperature Precipitation Wind Pressure Humidity
    00:00 +21°C° 0 mm 2 mps 642 mmHg 64%
    01:00 +21°C° 0 mm 2 mps 642 mmHg 63%
    02:00 +22°C° 0 mm 1 mps 642 mmHg 61%
    03:00 +21°C° 0 mm 1 mps 641 mmHg 60%
    04:00 +22°C° 0 mm 1 mps 642 mmHg 57%
    05:00 +22°C° 0 mm 1 mps 642 mmHg 53%
    06:00 +22°C° 0 mm 1 mps 642 mmHg 49%
    07:00 +25°C° 0 mm 1 mps 643 mmHg 42%
    08:00 +27°C° 0 mm 1 mps 643 mmHg 34%
    09:00 +30°C° 0 mm 1 mps 643 mmHg 27%
    10:00 +31°C° 0 mm 2 mps 644 mmHg 24%
    11:00 +32°C° 0 mm 2 mps 644 mmHg 22%
    12:00 +35°C° 0 mm 2 mps 644 mmHg 20%
    13:00 +35°C° 0 mm 2 mps 643 mmHg 20%
    14:00 +35°C° 0 mm 3 mps 643 mmHg 20%
    15:00 +35°C° 0 mm 3 mps 643 mmHg 20%
    16:00 +34°C° 0 mm 3 mps 643 mmHg 24%
    17:00 +33°C° 0 mm 3 mps 643 mmHg 29%
    18:00 +31°C° 0 mm 3 mps 642 mmHg 33%
    19:00 +28°C° 0 mm 3 mps 642 mmHg 43%
    20:00 +26°C° 0 mm 3 mps 642 mmHg 52%
    21:00 +24°C° 0 mm 3 mps 642 mmHg 62%
    22:00 +22°C° 0 mm 3 mps 642 mmHg 65%
    23:00 +21°C° 0 mm 3 mps 642 mmHg 69%

    Day after tomorrow, 30 July, Sunday

    Time Temperature Precipitation Wind Pressure Humidity
    00:00 +20°C° 0 mm 2 mps 643 mmHg 73%
    01:00 +20°C° 0 mm 2 mps 642 mmHg 74%
    02:00 +19°C° 0 mm 2 mps 642 mmHg 76%
    03:00 +18°C° 0 mm 2 mps 642 mmHg 78%
    04:00 +19°C° 0 mm 2 mps 643 mmHg 77%
    05:00 +19°C° 0 mm 2 mps 643 mmHg 76%
    06:00 +19°C° 0 mm 2 mps 643 mmHg 76%
    07:00 +23°C° 0 mm 2 mps 643 mmHg 67%
    08:00 +25°C° 0 mm 2 mps 644 mmHg 58%
    09:00 +27°C° 0 mm 2 mps 644 mmHg 49%
    10:00 +28°C° 0 mm 2 mps 645 mmHg 45%
    11:00 +29°C° 0 mm 2 mps 645 mmHg 41%
    12:00 +31°C° 0 mm 3 mps 645 mmHg 36%
    13:00 +31°C° 0 mm 3 mps 644 mmHg 36%
    14:00 +31°C° 0 mm 3 mps 644 mmHg 35%
    15:00 +33°C° 0 mm 3 mps 644 mmHg 35%
    16:00 +32°C° 0.1 mm 4 mps 643 mmHg 39%
    17:00 +30°C° 0.1 mm 4 mps 643 mmHg 43%
    18:00 +29°C° 0.1 mm 4 mps 643 mmHg 47%
    19:00 +27°C° 0.1 mm 4 mps 643 mmHg 52%
    20:00 +25°C° 0.1 mm 4 mps 643 mmHg 56%
    21:00 +22°C° 0.1 mm 3 mps 643 mmHg 61%
    22:00 +21°C° 0 mm 3 mps 643 mmHg 64%
    23:00 +21°C° 0 mm 3 mps 644 mmHg 66%

    31 July, Monday

    Time Temperature Precipitation Wind Pressure Humidity
    00:00 +20°C° 0 mm 3 mps 644 mmHg 69%
    01:00 +19°C° 0 mm 3 mps 644 mmHg 71%
    02:00 +19°C° 0 mm 3 mps 643 mmHg 74%
    03:00 +18°C° 0 mm 2 mps 643 mmHg 77%
    04:00 +19°C° 0 mm 2 mps 643 mmHg 76%
    05:00 +19°C° 0 mm 2 mps 644 mmHg 75%
    06:00 +19°C° 0 mm 2 mps 644 mmHg 74%
    07:00 +21°C° 0 mm 2 mps 644 mmHg 65%
    08:00 +25°C° 0 mm 2 mps 645 mmHg 57%
    09:00 +27°C° 0 mm 2 mps 645 mmHg 48%
    10:00 +28°C° 0 mm 2 mps 645 mmHg 44%
    11:00 +30°C° 0 mm 2 mps 645 mmHg 40%
    12:00 +31°C° 0 mm 2 mps 645 mmHg 36%
    13:00 +32°C° 0 mm 2 mps 645 mmHg 36%
    14:00 +33°C° 0 mm 3 mps 645 mmHg 36%
    15:00 +33°C° 0 mm 3 mps 644 mmHg 35%
    16:00 +31°C° 0.1 mm 3 mps 644 mmHg 40%
    17:00 +30°C° 0.1 mm 3 mps 644 mmHg 44%
    18:00 +29°C° 0.1 mm 3 mps 644 mmHg 49%
    19:00 +27°C° 0.4 mm 3 mps 644 mmHg 55%
    20:00 +26°C° 0.4 mm 3 mps 644 mmHg 61%
    21:00 +24°C° 0.4 mm 3 mps 645 mmHg 67%
    22:00 +22°C° 0.1 mm 3 mps 645 mmHg 69%
    23:00 +22°C° 0.1 mm 3 mps 645 mmHg 71%

    1 August, Tuesday

    Time Temperature Precipitation Wind Pressure Humidity
    00:00 +21°C° 0.1 mm 2 mps 645 mmHg 72%
    01:00 +21°C° 0 mm 2 mps 645 mmHg 74%
    02:00 +20°C° 0 mm 2 mps 645 mmHg 75%
    03:00 +20°C° 0 mm 2 mps 644 mmHg 77%
    04:00 +20°C° 0 mm 2 mps 645 mmHg 76%
    05:00 +20°C° 0 mm 2 mps 645 mmHg 75%
    06:00 +20°C° 0 mm 2 mps 645 mmHg 74%
    07:00 +23°C° 0 mm 2 mps 646 mmHg 66%
    08:00 +25°C° 0 mm 2 mps 646 mmHg 58%
    09:00 +28°C° 0 mm 2 mps 647 mmHg 50%
    10:00 +29°C° 0 mm 2 mps 647 mmHg 46%
    11:00 +30°C° 0 mm 2 mps 647 mmHg 42%
    12:00 +32°C° 0 mm 2 mps 647 mmHg 38%
    13:00 +32°C° 0.3 mm 2 mps 646 mmHg 38%
    14:00 +32°C° 0.3 mm 2 mps 646 mmHg 37%
    15:00 +34°C° 0.3 mm 2 mps 646 mmHg 37%
    16:00 +33°C° 0.1 mm 3 mps 646 mmHg 40%
    17:00 +31°C° 0.1 mm 3 mps 646 mmHg 44%
    18:00 +30°C° 0.1 mm 3 mps 645 mmHg 47%
    19:00 +28°C° 0 mm 3 mps 645 mmHg 53%
    20:00 +26°C° 0 mm 3 mps 645 mmHg 59%
    21:00 +24°C° 0 mm 3 mps 645 mmHg 66%
    22:00 +22°C° 0 mm 3 mps 645 mmHg 66%
    23:00 +21°C° 0 mm 3 mps 645 mmHg 67%

    2 August, Wednesday

    Time Temperature Precipitation Wind Pressure Humidity
    00:00 +21°C° 0 mm 3 mps 645 mmHg 67%
    01:00 +20°C° 0 mm 3 mps 645 mmHg 69%
    02:00 +20°C° 0 mm 2 mps 645 mmHg 70%
    03:00 +19°C° 0 mm 2 mps 645 mmHg 72%
    04:00 +20°C° 0.1 mm 2 mps 646 mmHg 71%
    05:00 +20°C° 0.1 mm 2 mps 646 mmHg 70%
    06:00 +20°C° 0.1 mm 2 mps 646 mmHg 69%
    07:00 +23°C° 0.1 mm 2 mps 646 mmHg 62%
    08:00 +25°C° 0.1 mm 2 mps 647 mmHg 54%
    09:00 +28°C° 0.1 mm 1 mps 647 mmHg 47%
    10:00 +29°C° 0 mm 2 mps 647 mmHg 44%
    11:00 +30°C° 0 mm 2 mps 647 mmHg 41%
    12:00 +31°C° 0 mm 2 mps 647 mmHg 39%
    13:00 +32°C° 0.2 mm 2 mps 647 mmHg 38%
    14:00 +32°C° 0.2 mm 2 mps 647 mmHg 38%
    15:00 +32°C° 0.2 mm 2 mps 646 mmHg 38%
    16:00 +31°C° 0.2 mm 3 mps 646 mmHg 41%
    17:00 +31°C° 0.2 mm 3 mps 646 mmHg 44%
    18:00 +30°C° 0.2 mm 3 mps 646 mmHg 47%
    19:00 +27°C° 0 mm 3 mps 645 mmHg 53%
    20:00 +25°C° 0 mm 3 mps 645 mmHg 59%
    21:00 +22°C° 0 mm 3 mps 645 mmHg 65%
    22:00 +21°C° 0 mm 3 mps 645 mmHg 66%
    23:00 +21°C° 0 mm 3 mps 645 mmHg 67%
    Show more